TimeEDT,TemperatureF,Dew PointF,Humidity,Sea Level PressureIn,VisibilityMPH,Wind Direction,Wind SpeedMPH,Gust SpeedMPH,PrecipitationIn,Events,Conditions,WindDirDegrees,DateUTC
12:15 AM,62.6,60.8,94,29.77,7.0,Calm,Calm,-,0.01,,Mostly Cloudy,0,2013-08-31 04:15:00
12:35 AM,62.6,62.6,100,29.77,9.0,South,4.6,-,0.01,,Overcast,170,2013-08-31 04:35:00
12:55 AM,62.6,62.6,100,29.77,6.0,Calm,Calm,-,0.01,,Overcast,0,2013-08-31 04:55:00
1:15 AM,62.6,62.6,100,29.77,6.0,SW,4.6,-,N/A,,Mostly Cloudy,230,2013-08-31 05:15:00
1:35 AM,62.6,62.6,100,29.78,8.0,Calm,Calm,-,N/A,,Mostly Cloudy,0,2013-08-31 05:35:00
1:55 AM,62.6,60.8,94,29.77,5.0,SSW,3.5,-,N/A,,Mostly Cloudy,200,2013-08-31 05:55:00
2:15 AM,62.6,60.8,94,29.77,5.0,SSW,3.5,-,N/A,,Overcast,200,2013-08-31 06:15:00
2:35 AM,62.6,62.6,100,29.77,5.0,Calm,Calm,-,N/A,,Overcast,0,2013-08-31 06:35:00
2:55 AM,62.6,60.8,94,29.77,5.0,Calm,Calm,-,0.01,,Overcast,0,2013-08-31 06:55:00
3:15 AM,64.4,64.4,100,29.80,7.0,SW,12.7,20.7,N/A,,Overcast,220,2013-08-31 07:15:00
3:35 AM,64.4,62.6,94,29.81,10.0,WSW,5.8,-,0.11,,Overcast,240,2013-08-31 07:35:00
3:55 AM,64.4,62.6,94,29.78,10.0,Calm,Calm,-,0.20,,Mostly Cloudy,0,2013-08-31 07:55:00
4:15 AM,64.4,62.6,94,29.77,7.0,Calm,Calm,-,0.02,,Overcast,0,2013-08-31 08:15:00
4:35 AM,64.4,64.4,100,29.77,7.0,Calm,Calm,-,0.03,,Overcast,0,2013-08-31 08:35:00
4:55 AM,64.4,64.4,100,29.77,5.0,Calm,Calm,-,0.03,,Overcast,0,2013-08-31 08:55:00
5:15 AM,64.4,64.4,100,29.77,3.0,Calm,Calm,-,N/A,,Scattered Clouds,0,2013-08-31 09:15:00
5:35 AM,64.4,64.4,100,29.78,2.5,Calm,Calm,-,N/A,,Mostly Cloudy,0,2013-08-31 09:35:00
5:55 AM,62.6,62.6,100,29.78,1.0,Calm,Calm,-,N/A,,Overcast,0,2013-08-31 09:55:00
6:15 AM,64.4,64.4,100,29.79,3.0,Calm,Calm,-,N/A,,Overcast,0,2013-08-31 10:15:00
6:35 AM,64.4,64.4,100,29.80,4.0,Calm,Calm,-,N/A,,Mostly Cloudy,0,2013-08-31 10:35:00
6:55 AM,64.4,64.4,100,29.81,8.0,Calm,Calm,-,N/A,,Mostly Cloudy,0,2013-08-31 10:55:00
7:15 AM,64.4,64.4,100,29.81,7.0,SSW,3.5,-,N/A,,Mostly Cloudy,210,2013-08-31 11:15:00
7:35 AM,64.4,64.4,100,29.82,8.0,SSW,6.9,-,N/A,,Mostly Cloudy,200,2013-08-31 11:35:00
7:55 AM,64.4,64.4,100,29.82,7.0,SW,6.9,-,N/A,,Mostly Cloudy,220,2013-08-31 11:55:00
8:15 AM,64.4,64.4,100,29.83,7.0,Calm,Calm,-,N/A,,Overcast,0,2013-08-31 12:15:00
8:35 AM,66.2,64.4,94,29.83,9.0,SSW,4.6,-,N/A,,Overcast,210,2013-08-31 12:35:00
8:55 AM,66.2,64.4,94,29.83,10.0,SSW,6.9,-,N/A,,Mostly Cloudy,200,2013-08-31 12:55:00
9:15 AM,66.2,64.4,94,29.84,10.0,SSW,3.5,-,N/A,,Mostly Cloudy,200,2013-08-31 13:15:00
9:35 AM,68.0,64.4,88,29.83,10.0,South,6.9,-,N/A,,Mostly Cloudy,190,2013-08-31 13:35:00
9:55 AM,68.0,64.4,88,29.84,10.0,SSW,4.6,-,N/A,,Overcast,210,2013-08-31 13:55:00
10:15 AM,69.8,66.2,88,29.84,10.0,Calm,Calm,-,N/A,,Overcast,0,2013-08-31 14:15:00
10:35 AM,69.8,66.2,88,29.84,10.0,SSW,3.5,-,N/A,,Overcast,200,2013-08-31 14:35:00
10:55 AM,71.6,66.2,83,29.84,10.0,SSE,3.5,-,N/A,,Overcast,160,2013-08-31 14:55:00
11:15 AM,71.6,66.2,83,29.84,10.0,South,4.6,-,N/A,,Overcast,170,2013-08-31 15:15:00
11:35 AM,73.4,66.2,78,29.83,10.0,Calm,Calm,-,N/A,,Mostly Cloudy,0,2013-08-31 15:35:00
11:55 AM,71.6,66.2,83,29.82,10.0,East,3.5,-,N/A,,Partly Cloudy,90,2013-08-31 15:55:00
12:15 PM,73.4,68.0,83,29.82,10.0,ENE,3.5,-,N/A,,Clear,70,2013-08-31 16:15:00
12:35 PM,73.4,68.0,83,29.81,10.0,ESE,5.8,-,N/A,,Partly Cloudy,120,2013-08-31 16:35:00
12:55 PM,73.4,68.0,83,29.81,10.0,ESE,5.8,-,N/A,,Clear,120,2013-08-31 16:55:00
1:15 PM,73.4,68.0,83,29.81,10.0,SE,3.5,-,N/A,,Partly Cloudy,140,2013-08-31 17:15:00
1:35 PM,73.4,68.0,83,29.81,10.0,East,3.5,-,N/A,,Mostly Cloudy,100,2013-08-31 17:35:00
1:55 PM,75.2,68.0,78,29.81,10.0,ESE,4.6,-,N/A,,Overcast,110,2013-08-31 17:55:00
2:15 PM,75.2,66.2,73,29.81,10.0,Calm,Calm,-,N/A,,Mostly Cloudy,0,2013-08-31 18:15:00
2:35 PM,75.2,66.2,73,29.81,10.0,ESE,6.9,-,N/A,,Partly Cloudy,110,2013-08-31 18:35:00
2:55 PM,73.4,66.2,78,29.81,10.0,East,5.8,-,N/A,,Clear,90,2013-08-31 18:55:00
3:15 PM,73.4,66.2,78,29.81,10.0,East,5.8,-,N/A,,Clear,80,2013-08-31 19:15:00
3:35 PM,73.4,66.2,78,29.81,10.0,East,4.6,-,N/A,,Mostly Cloudy,80,2013-08-31 19:35:00
3:55 PM,73.4,66.2,78,29.81,10.0,East,9.2,-,N/A,,Partly Cloudy,90,2013-08-31 19:55:00
4:15 PM,71.6,66.2,83,29.81,10.0,East,6.9,-,N/A,,Clear,100,2013-08-31 20:15:00
4:35 PM,69.8,66.2,88,29.81,10.0,East,8.1,-,N/A,,Clear,90,2013-08-31 20:35:00
4:55 PM,68.0,64.4,88,29.82,9.0,East,4.6,-,N/A,,Mostly Cloudy,90,2013-08-31 20:55:00
5:15 PM,69.8,66.2,88,29.81,10.0,East,3.5,-,N/A,,Mostly Cloudy,100,2013-08-31 21:15:00
5:35 PM,68.0,64.4,88,29.81,10.0,East,3.5,-,N/A,,Clear,90,2013-08-31 21:35:00
5:55 PM,68.0,64.4,88,29.81,10.0,ENE,4.6,-,N/A,,Partly Cloudy,70,2013-08-31 21:55:00
6:15 PM,66.2,64.4,94,29.81,8.0,East,3.5,-,N/A,,Partly Cloudy,90,2013-08-31 22:15:00
6:35 PM,64.4,62.6,94,29.81,6.0,ENE,3.5,-,N/A,,Clear,70,2013-08-31 22:35:00
6:55 PM,64.4,64.4,100,29.83,5.0,Calm,Calm,-,N/A,,Scattered Clouds,0,2013-08-31 22:55:00
7:15 PM,64.4,64.4,100,29.82,5.0,Calm,Calm,-,N/A,,Overcast,0,2013-08-31 23:15:00
7:35 PM,64.4,64.4,100,29.82,5.0,Calm,Calm,-,N/A,,Overcast,0,2013-08-31 23:35:00
7:55 PM,64.4,64.4,100,29.82,6.0,Calm,Calm,-,N/A,,Overcast,0,2013-08-31 23:55:00
8:15 PM,64.4,64.4,100,29.83,5.0,Calm,Calm,-,N/A,,Overcast,0,2013-09-01 00:15:00
8:35 PM,64.4,62.6,94,29.83,5.0,Calm,Calm,-,N/A,,Overcast,0,2013-09-01 00:35:00
8:55 PM,64.4,64.4,100,29.83,5.0,Calm,Calm,-,N/A,,Overcast,0,2013-09-01 00:55:00
9:15 PM,64.4,64.4,100,29.83,5.0,Calm,Calm,-,N/A,,Overcast,0,2013-09-01 01:15:00
9:35 PM,64.4,64.4,100,29.83,4.0,Calm,Calm,-,N/A,,Overcast,0,2013-09-01 01:35:00
9:55 PM,64.4,64.4,100,29.83,4.0,East,3.5,-,N/A,,Overcast,90,2013-09-01 01:55:00
10:15 PM,64.4,64.4,100,29.83,5.0,Calm,Calm,-,N/A,,Overcast,0,2013-09-01 02:15:00
10:35 PM,62.6,62.6,100,29.82,4.0,East,4.6,-,N/A,,Overcast,100,2013-09-01 02:35:00
10:55 PM,62.6,62.6,100,29.82,1.8,East,5.8,-,N/A,,Overcast,100,2013-09-01 02:55:00
11:15 PM,62.6,62.6,100,29.82,2.0,East,5.8,-,N/A,,Overcast,90,2013-09-01 03:15:00
11:35 PM,62.6,62.6,100,29.82,1.5,Calm,Calm,-,N/A,,Overcast,0,2013-09-01 03:35:00
11:55 PM,62.6,62.6,100,29.82,0.2,ENE,3.5,-,N/A,,Overcast,70,2013-09-01 03:55:00